Regional Weather Roundup
Issued by NWS

Home | Current Version | Previous Version | Text Only | Print | Product List | Glossary Off
Versions: 1 2 3 4 5 6 7 8 9 10 11 12 13 14 15 16 17 18 19 20 21 22 23 24 25 26 27 28 29 30 31 32 33 34 35 36 37 38 39 40 41 42 43 44 45 46 47 48 49 50

000
ASUS43 KLMK 241202
RWRKY
KENTUCKY REGIONAL WEATHER ROUNDUP
NATIONAL WEATHER SERVICE LOUISVILLE KY
800 AM EDT WED AUG 24 2016

NOTE "FAIR" INDICATES FEW OR NO CLOUDS BELOW 12,000 FEET
WITH NO SIGNIFICANT WEATHER AND/OR OBSTRUCTIONS TO VISIBILITY.

KYZ001>023-026-027-061>063-070>075-241300-
WESTERN AND SOUTH CENTRAL KENTUCKY

CITY           SKY/WX    TMP DP  RH WIND       PRES   REMARKS
PADUCAH        PTCLDY    75  71  87 VRB5      30.15R
HENDERSON      CLOUDY    72  68  88 S7        30.13F
OWENSBORO      PTCLDY    72  71  96 S7        30.16F
HOPKINSVILLE   CLOUDY    73  70  92 S1        30.19R
BOWLING GREEN  PTCLDY    70  68  93 CALM      30.20R
GLASGOW        CLOUDY    68  68 100 CALM      30.21S
$$

KYZ024-025-028>034-038-045-046-053-241300-
NORTH CENTRAL KENTUCKY

CITY           SKY/WX    TMP DP  RH WIND       PRES   REMARKS
LOUISVILLE/SDF CLOUDY    71  66  84 SE6       30.18R
LOUISVILLE/LOU CLOUDY    72  65  78 S3        30.20R
FORT KNOX      PTCLDY    68  66  93 S2        30.18R
$$

KYZ035>037-039>044-047>052-055>060-089>105-241300-
NORTHEAST KENTUCKY

CITY           SKY/WX    TMP DP  RH WIND       PRES   REMARKS
LEXINGTON      MOSUNNY   69  64  84 S6        30.23R
COVINGTON      CLOUDY    68  64  87 S6        30.20R
FRANKFORT      MOSUNNY   69  64  84 CALM      30.21R
$$

KYZ054-064>069-076>088-106>120-241300-
SOUTHEAST KENTUCKY

CITY           SKY/WX    TMP DP  RH WIND       PRES   REMARKS
JACKSON        MOSUNNY   66  63  90 CALM      30.26R
LONDON         MOSUNNY   66  62  87 CALM      30.26R
SOMERSET       MOSUNNY   64  64 100 CALM      30.26R
MIDDLESBORO    CLOUDY    64  63  98 CALM      30.29S
MONTICELLO     CLOUDY   N/A N/A N/A W6        30.26R
$$





USA.gov is the U.S. government's official web portal to all federal, state and local government web resources and services.